Tracking 19242 objects as of 18-Sep-2018
HD Live streaming from Space Station
objects crossing your sky now

FENGYUN 1C DEB

Track FENGYUN 1C DEB now!
10-day predictions


NORAD ID: 30736
Int'l Code: 1999-025ASW
Perigee: 842.3 km
Apogee: 1,290.0 km
Inclination: 98.8 °
Period: 106.4 minutes
Semi major axis: 7437 km
RCS: 0.0154 m2 (small)
Launch date: May 10, 1999
Source: People's Republic of China (PRC)
Launch site: Taiyaun Space Center, China (TSC)

Note: This is SATELLITE DEBRIS
aabbcc
Your satellite tracking list
Your tracking list is empty




NASA's NSSDC Master Catalog

Two Line Element Set (TLE):
1 30736U 99025ASW 18259.73813264  .00000506  00000-0  60430-3 0  9990
2 30736  98.8189 179.3950 0301001  48.2406 342.4202 13.53605672570453
Source of the keplerian elements: AFSPC